DW4707 Campi Bisenzio - Firenze IT current weather conditions

sailwx.info

Last reported at 2016-Aug-21 08:26 UTC.
Time now 2017-Jan-20 18:03 UTC

Location: N 43°50' E 011°08'.
View on Google Maps.

See reports from other nearby stations

  
Tides and Currents Weather Stations Pressure Air Temp Water Temp Dewpoint Dewpoint Depression Visibility Wind Speed Wind Dir Waves Ship Positions
date/time (UTC)wind fromknots sea level pressurealtimeterstation pressurevisibilityair tempwater tempwave heightnotes
2017-Jan-20 16:51 6.1
2017-Jan-20 16:46 021 6.1
2017-Jan-20 16:41 045 5 gusting 6 6.1
2017-Jan-20 16:36 045 0 gusting 2 6.7
2017-Jan-20 16:31 6.7
2017-Jan-20 16:26 068 6.7
2017-Jan-20 16:16 6.7
2017-Jan-20 16:11 045 1 gusting 2 6.7
2017-Jan-20 16:06 090 1 gusting 5 6.7
2017-Jan-20 16:01 022 0 gusting 5 6.7
2017-Jan-20 15:57 338 1 gusting 2 7.2
2017-Jan-20 15:46 042 7.2
2017-Jan-20 15:36 202 1 gusting 2 7.2
2017-Jan-20 15:31 051 7.8
2017-Jan-20 15:26 7.8
2017-Jan-20 15:21 045 1 gusting 2 7.8
2017-Jan-20 15:11 068 1 gusting 2 7.8
2017-Jan-20 15:06 7.8
2017-Jan-20 14:56 045 1 gusting 2 8.3
2017-Jan-20 14:51 8.3
2017-Jan-20 14:46 008 8.3
2017-Jan-20 14:36 8.3
2017-Jan-20 14:31 042 0 gusting 5 8.3
2017-Jan-20 14:26 022 2 gusting 5 8.3
2017-Jan-20 14:21 002 2 gusting 2 8.3
2017-Jan-20 14:16 030 2 gusting 4 8.3
2017-Jan-20 14:11 022 1 gusting 1 8.3
2017-Jan-20 14:06 003 0 gusting 0 8.3
2017-Jan-20 14:01 022 8.9
2017-Jan-20 13:56 068 0 gusting 2 8.9
2017-Jan-20 13:51 003 2 gusting 2 8.9
2017-Jan-20 13:46 8.9
2017-Jan-20 13:36 045 1 gusting 2 8.9
2017-Jan-20 13:31 085 4 gusting 5 8.9
2017-Jan-20 13:26 8.9
2017-Jan-20 13:21 019 8.9
2017-Jan-20 13:16 012 0 gusting 1 8.9
2017-Jan-20 13:01 065 8.9
2017-Jan-20 12:56 068 8.9
2017-Jan-20 12:51 045 8.9
2017-Jan-20 12:46 022 8.9
2017-Jan-20 12:41 022 1 gusting 1 8.9
2017-Jan-20 12:31 005 0 gusting 2 8.9
2017-Jan-20 12:26 068 0 gusting 2 8.9
2017-Jan-20 12:21 225 4 gusting 5 8.9
2017-Jan-20 12:11 8.9
2017-Jan-20 12:06 057 4 gusting 5 8.9
2017-Jan-20 12:01 343 8.9
2017-Jan-20 11:46 022 1 gusting 1 8.9
2017-Jan-20 11:41 315 1 gusting 1 8.9
2017-Jan-20 11:36 042 8.9
2017-Jan-20 11:31 022 8.9
2017-Jan-20 11:26 045 1 gusting 2 8.9
2017-Jan-20 11:21 051 1 gusting 4 8.9
2017-Jan-20 11:11 8.9
2017-Jan-20 11:06 002 8.9
2017-Jan-20 10:56 315 8.9
2017-Jan-20 10:51 013 4 gusting 5 8.3
2017-Jan-20 10:46 315 8.3
2017-Jan-20 10:36 108 1 gusting 2 8.3
2017-Jan-20 10:26 7.8
2017-Jan-20 10:21 022 7.8
2017-Jan-20 10:16 021 0 gusting 4 7.8
2017-Jan-20 10:11 158 0 gusting 1 7.8
2017-Jan-20 09:56 7.8
2017-Jan-20 09:51 022 2 gusting 2 7.2
2017-Jan-20 09:41 022 2 gusting 2 7.2
2017-Jan-20 09:36 013 2 gusting 2 7.2
2017-Jan-20 09:31 339 1 gusting 2 7.2
2017-Jan-20 09:26 022 1 gusting 1 7.2
2017-Jan-20 09:21 005 1 gusting 1 7.2
2017-Jan-20 09:11 022 0 gusting 2 6.7
2017-Jan-20 09:06 008 1 gusting 2 6.7
2017-Jan-20 09:01 022 1 gusting 2 6.7
2017-Jan-20 08:56 338 1 gusting 2 6.7
2017-Jan-20 08:51 033 0 gusting 7 6.1
2017-Jan-20 08:36 022 3 gusting 4 5.6
2017-Jan-20 08:26 5.0
2017-Jan-20 08:16 315 3 gusting 5 5.0
2017-Jan-20 08:11 4.4
2017-Jan-20 08:06 008 2 gusting 6 4.4
2017-Jan-20 08:01 4.4
2017-Jan-20 07:56 045 4 gusting 5 4.4
2017-Jan-20 07:51 031 4.4
2017-Jan-20 07:46 023 4.4
2017-Jan-20 07:41 338 0 gusting 1 4.4
2017-Jan-20 07:36 022 0 gusting 1 4.4
2017-Jan-20 07:31 202 0 gusting 0 4.4
2017-Jan-20 07:26 202 4.4
2017-Jan-20 07:21 042 0 gusting 5 4.4
2017-Jan-20 07:01 022 0 gusting 0 3.9
2017-Jan-20 06:56 022 4 gusting 6 3.9
2017-Jan-20 06:51 022 3.9
2017-Jan-20 06:46 022 3.9
2017-Jan-20 06:36 3.9
2017-Jan-20 06:26 3.9
2017-Jan-20 06:16 3.9
2017-Jan-20 06:11 045 1 gusting 2 3.9
2017-Jan-20 06:06 033 2 gusting 4 3.9
2017-Jan-20 06:01 045 2 gusting 4 3.9
2017-Jan-20 05:56 338 2 gusting 5 3.9
2017-Jan-20 05:51 022 2 gusting 5 3.9
2017-Jan-20 05:46 135 1 gusting 1 3.9
2017-Jan-20 05:41 3.9
2017-Jan-20 05:31 3.9
2017-Jan-20 05:26 004 3 gusting 4 3.9
2017-Jan-20 05:21 036 3.9
2017-Jan-20 05:16 022 0 gusting 2 3.9
2017-Jan-20 05:06 022 0 gusting 2 3.9
2017-Jan-20 04:51 292 3.9
2017-Jan-20 04:46 3.9
2017-Jan-20 04:41 292 0 gusting 1 3.9
2017-Jan-20 04:36 056 1 gusting 1 3.9
2017-Jan-20 04:31 022 1 gusting 1 3.9
2017-Jan-20 04:21 101 0 gusting 5 3.9
2017-Jan-20 04:16 022 2 gusting 5 3.9
2017-Jan-20 04:11 068 2 gusting 2 3.9
2017-Jan-20 04:06 011 4 gusting 5 3.9
2017-Jan-20 03:56 315 3.9
2017-Jan-20 03:46 3.9
2017-Jan-20 03:41 042 2 gusting 4 3.9
2017-Jan-20 03:36 022 3.9
2017-Jan-20 03:31 4.4
2017-Jan-20 03:26 135 4.4
2017-Jan-20 03:22 006 0 gusting 0 4.4
2017-Jan-20 03:16 4.4
2017-Jan-20 03:11 282 1 gusting 1 4.4
2017-Jan-20 03:07 055 1 gusting 2 4.4
2017-Jan-20 02:57 045 4 gusting 4 4.4
2017-Jan-20 02:47 036 0 gusting 6 4.4
2017-Jan-20 02:31 022 6 gusting 6 4.4
2017-Jan-20 02:27 045 4.4
2017-Jan-20 02:22 292 4.4
2017-Jan-20 02:17 022 2 gusting 4 4.4
2017-Jan-20 02:12 045 0 gusting 1 4.4
2017-Jan-20 02:07 090 0 gusting 1 4.4
2017-Jan-20 02:02 054 4.4
2017-Jan-20 01:57 022 4 gusting 6 4.4
2017-Jan-20 01:52 052 2 gusting 5 4.4
2017-Jan-20 01:47 292 2 gusting 5 4.4
2017-Jan-20 01:41 044 1 gusting 2 4.4
2017-Jan-20 01:27 353 1 gusting 1 4.4
2017-Jan-20 01:22 002 1 gusting 1 4.4
2017-Jan-20 01:17 022 0 gusting 1 4.4
2017-Jan-20 01:11 338 1 gusting 1 4.4
2017-Jan-20 00:56 022 1 gusting 2 5.0
2017-Jan-20 00:36 059 1 gusting 13 5.0
2017-Jan-20 00:31 068 6 gusting 13 5.0
2017-Jan-20 00:26 4.4
2017-Jan-20 00:21 323 5.0
2017-Jan-20 00:16 338 0 gusting 2 5.0
2017-Jan-20 00:12 022 2 gusting 2 5.0
2017-Jan-20 00:07 5.0
2017-Jan-20 00:01 022 0 gusting 1 5.0
2017-Jan-19 23:57 026 4 gusting 5 5.0
2017-Jan-19 23:46 090 5.0
2017-Jan-19 23:41 045 1 gusting 1 5.0
2017-Jan-19 23:36 022 1 gusting 1 5.0
2017-Jan-19 23:32 014 2 gusting 4 5.0
2017-Jan-19 23:21 045 2 gusting 2 5.0
2017-Jan-19 23:16 068 1 gusting 2 5.0
2017-Jan-19 23:01 057 5.0
2017-Jan-19 22:56 5.0
2017-Jan-19 22:52 5.0
2017-Jan-19 22:46 022 1 gusting 1 5.0
2017-Jan-19 22:41 027 1 gusting 1 5.0
2017-Jan-19 22:36 022 1 gusting 1 5.0
2017-Jan-19 22:26 022 0 gusting 2 5.0
2017-Jan-19 22:21 018 2 gusting 2 5.0
2017-Jan-19 22:06 022 0 gusting 4 5.0
2017-Jan-19 21:52 027 4 gusting 4 5.0
2017-Jan-19 21:46 338 0 gusting 1 5.0
2017-Jan-19 21:41 060 1 gusting 2 5.0
2017-Jan-19 21:31 045 5.0
2017-Jan-19 21:26 022 4 gusting 5 5.0
2017-Jan-19 21:21 021 1 gusting 6 5.0
2017-Jan-19 21:16 5.0
2017-Jan-19 21:11 5.0
2017-Jan-19 21:01 112 5.0
2017-Jan-19 20:57 067 5.0
2017-Jan-19 20:51 5.0
2017-Jan-19 20:46 027 1 gusting 1 5.0
2017-Jan-19 20:36 050 1 gusting 1 5.0
2017-Jan-19 20:26 251 5.6
2017-Jan-19 20:11 031 4 gusting 4 5.6
2017-Jan-19 20:06 203 0 gusting 1 5.6
2017-Jan-19 20:01 022 0 gusting 0 5.0
2017-Jan-19 19:56 045 5.6
2017-Jan-19 19:51 198 5.6
2017-Jan-19 19:46 045 1 gusting 2 5.6
2017-Jan-19 19:41 022 5.6
2017-Jan-19 19:17 045 1 gusting 5 5.6
2017-Jan-19 19:01 045 4 gusting 4 5.6
2017-Jan-19 18:56 010 1 gusting 2 5.6
2017-Jan-19 18:51 060 0 gusting 2 5.6
2017-Jan-19 18:36 101 0 gusting 1 5.6
2017-Jan-19 18:31 5.6
2017-Jan-19 18:26 030 0 gusting 2 5.6
2017-Jan-19 18:12 001 6 gusting 15 5.6
2017-Jan-19 18:06 045 1 gusting 1 5.6
2017-Jan-19 18:01 022 0 gusting 0 5.6
2017-Jan-19 17:56 242 2 gusting 2 5.6
2017-Jan-19 17:51 161 1 gusting 1 5.6
2017-Jan-19 17:47 158 5.6
2017-Jan-19 17:41 060 5.6
2017-Jan-19 17:37 004 5.6
2017-Jan-19 17:31 022 5.6
2017-Jan-19 17:27 358 5.6
2017-Jan-19 17:21 341 1 gusting 1 5.6
2017-Jan-19 17:01 5.6
2017-Jan-19 16:56 5.6
2017-Jan-19 16:51 356 5 gusting 7 5.6
2017-Jan-19 16:46 022 1 gusting 4 5.6
2017-Jan-19 16:41 5.6
2017-Jan-19 16:36 6.1
2017-Jan-19 16:31 022 0 gusting 1 6.1
2017-Jan-19 16:26 050 4 gusting 5 6.1
2017-Jan-19 16:16 045 6.1
2017-Jan-19 16:11 286 2 gusting 4 6.1
2017-Jan-19 16:01 202 0 gusting 1 6.1
2017-Jan-19 15:56 022 1 gusting 2 6.1
2017-Jan-19 15:41 022 6.1
2017-Jan-19 15:36 090 6.1
2017-Jan-19 15:31 6.1
2017-Jan-19 15:27 050 6.1
2017-Jan-19 15:17 022 2 gusting 4 6.7
2017-Jan-19 15:11 059 0 gusting 4 6.7
2017-Jan-19 15:07 052 6.7
2017-Jan-19 14:56 6.7
2017-Jan-19 14:52 068 6.7
2017-Jan-19 14:46 135 0 gusting 2 6.7
2017-Jan-19 14:41 140 0 gusting 2 6.7
2017-Jan-19 14:36 181 0 gusting 1 6.7
2017-Jan-19 14:31 338 2 gusting 4 6.7
2017-Jan-19 14:21 315 4 gusting 5 6.1
2017-Jan-19 14:17 158 0 gusting 4 6.7
2017-Jan-19 14:07 045 1 gusting 1 6.7
2017-Jan-19 14:01 338 0 gusting 0 6.7
2017-Jan-19 13:57 112 6.7
2017-Jan-19 13:42 026 6.7
2017-Jan-19 13:36 248 6.7
2017-Jan-19 13:26 040 0 gusting 6 6.7
2017-Jan-19 13:21 022 6.1
2017-Jan-19 13:17 045 5 gusting 7 6.1
2017-Jan-19 13:11 068 6.1
2017-Jan-19 13:06 294 0 gusting 1 6.1
2017-Jan-19 13:02 112 6.1
2017-Jan-19 12:57 022 1 gusting 4 6.1
2017-Jan-19 12:51 003 4 gusting 4 6.1
2017-Jan-19 12:46 6.7
2017-Jan-19 12:42 030 0 gusting 1 6.7
2017-Jan-19 12:37 180 1 gusting 4 6.7
2017-Jan-19 12:32 315 2 gusting 2 6.7
2017-Jan-19 12:26 346 1 gusting 2 6.7
2017-Jan-19 12:21 022 0 gusting 10 6.7
2017-Jan-19 12:06 022 2 gusting 2 6.7
2017-Jan-19 11:56 045 1 gusting 5 6.7
2017-Jan-19 11:47 248 1 gusting 4 6.7
2017-Jan-19 11:42 076 6.7
2017-Jan-19 11:37 6.1
2017-Jan-19 11:32 022 0 gusting 6 6.1
2017-Jan-19 11:26 6.7
2017-Jan-19 11:21 045 0 gusting 1 6.7
2017-Jan-19 11:16 6.7
2017-Jan-19 11:06 022 1 gusting 5 6.7
2017-Jan-19 11:02 6.7
2017-Jan-19 10:56 020 0 gusting 6 6.7
2017-Jan-19 10:51 022 1 gusting 2 6.7
2017-Jan-19 10:42 003 1 gusting 6 6.7
2017-Jan-19 10:32 022 2 gusting 2 6.7
2017-Jan-19 10:27 315 1 gusting 2 6.1
2017-Jan-19 10:12 010 2 gusting 2 6.1
2017-Jan-19 10:01 6.1
2017-Jan-19 09:57 022 1 gusting 4 6.1
2017-Jan-19 09:52 6.1
2017-Jan-19 09:47 6.1
2017-Jan-19 09:31 5.6
2017-Jan-19 09:21 225 1 gusting 4 5.6
2017-Jan-19 09:16 090 5.6
2017-Jan-19 09:11 079 5.6
2017-Jan-19 08:57 044 0 gusting 0 5.6
2017-Jan-19 08:51 022 0 gusting 0 5.6
2017-Jan-19 08:46 248 1 gusting 2 5.0
2017-Jan-19 08:42 023 3 gusting 6 5.0
2017-Jan-19 08:16 135 1 gusting 2 4.4
2017-Jan-19 08:12 013 1 gusting 2 4.4
2017-Jan-19 08:06 022 4.4
2017-Jan-19 07:56 292 0 gusting 6 4.4
2017-Jan-19 07:51 4.4
2017-Jan-19 07:42 4.4
2017-Jan-19 07:36 4.4
2017-Jan-19 07:26 045 5 gusting 5 4.4
2017-Jan-19 07:22 022 6 gusting 10 4.4
2017-Jan-19 07:16 045 7 gusting 10 4.4
2017-Jan-19 07:12 016 4 gusting 4 4.4
2017-Jan-19 07:07 225 5 gusting 6 4.4
2017-Jan-19 07:02 023 1 gusting 1 4.4
2017-Jan-19 06:47 4.4
2017-Jan-19 06:42 4.4
2017-Jan-19 06:37 022 5 gusting 6 4.4
2017-Jan-19 06:32 045 2 gusting 4 4.4
2017-Jan-19 06:27 346 0 gusting 4 4.4
2017-Jan-19 06:22 022 0 gusting 1 4.4
2017-Jan-19 06:17 338 4.4
2017-Jan-19 06:07 338 6 gusting 6 4.4
2017-Jan-19 06:02 4.4
2017-Jan-19 05:56 280 0 gusting 2 4.4
2017-Jan-19 05:52 180 0 gusting 2 4.4
2017-Jan-19 05:47 022 3 gusting 4 4.4
2017-Jan-19 05:37 112 0 gusting 4 4.4
2017-Jan-19 05:31 066 0 gusting 6 4.4
2017-Jan-19 05:26 012 1 gusting 6 4.4
2017-Jan-19 05:22 4.4
2017-Jan-19 05:17 341 0 gusting 5 4.4
2017-Jan-19 05:12 007 0 gusting 5 4.4
2017-Jan-19 05:02 4.4
2017-Jan-19 04:57 015 2 gusting 4 4.4
2017-Jan-19 04:52 4.4
2017-Jan-19 04:32 319 1 gusting 5 4.4
2017-Jan-19 04:27 006 2 gusting 5 4.4
2017-Jan-19 04:07 068 1 gusting 2 4.4
2017-Jan-19 04:02 045 1 gusting 1 4.4
2017-Jan-19 03:57 038 4.4
2017-Jan-19 03:52 338 0 gusting 2 4.4
2017-Jan-19 03:47 133 4.4
2017-Jan-19 03:37 022 0 gusting 0 4.4
2017-Jan-19 03:32 059 1 gusting 2 4.4
2017-Jan-19 03:26 092 0 gusting 2 4.4
2017-Jan-19 03:22 022 0 gusting 1 4.4
2017-Jan-19 03:17 338 2 gusting 5 4.4
2017-Jan-19 03:11 032 0 gusting 5 4.4
2017-Jan-19 03:07 068 0 gusting 1 4.4
2017-Jan-19 03:02 315 0 gusting 1 4.4
2017-Jan-19 02:57 038 1 gusting 2 4.4
2017-Jan-19 02:52 045 0 gusting 2 4.4
2017-Jan-19 02:37 4.4
2017-Jan-19 02:32 316 4.4
2017-Jan-19 02:27 052 4.4
2017-Jan-19 02:22 090 4.4
2017-Jan-19 02:16 4.4
2017-Jan-19 02:11 026 2 gusting 5 4.4
2017-Jan-19 02:02 022 1 gusting 2 4.4
2017-Jan-19 01:52 5.0
2017-Jan-19 01:42 022 5.0
2017-Jan-19 01:37 5.0
2017-Jan-19 01:32 022 2 gusting 6 5.0
2017-Jan-19 01:27 022 0 gusting 2 5.0
2017-Jan-19 01:22 022 1 gusting 2 4.4
2017-Jan-19 01:17 338 1 gusting 2 5.0
2017-Jan-19 01:12 041 4 gusting 5 4.4
2017-Jan-19 01:06 4.4
2017-Jan-19 01:01 068 1 gusting 2 4.4
2017-Jan-19 00:37 022 2 gusting 5 5.0
2017-Jan-19 00:31 041 1 gusting 1 5.0
2017-Jan-19 00:27 045 2 gusting 2 5.0
2017-Jan-19 00:17 109 1 gusting 1 5.0
2017-Jan-19 00:12 090 5.0
2017-Jan-19 00:07 045 1 gusting 1 5.0
2017-Jan-19 00:02 060 1 gusting 2 5.0
2017-Jan-18 23:57 204 0 gusting 15 5.0
2017-Jan-18 23:52 022 5 gusting 15 5.0
2017-Jan-18 23:46 029 3 gusting 4 5.0
2017-Jan-18 23:41 5.0
2017-Jan-18 23:37 022 0 gusting 1 5.0
2017-Jan-18 23:26 033 1 gusting 2 5.0
2017-Jan-18 23:22 022 0 gusting 2 5.0
2017-Jan-18 23:08 338 1 gusting 2 5.0
2017-Jan-18 22:57 007 5 gusting 7 5.0
2017-Jan-18 22:47 5.0
2017-Jan-18 22:42 033 2 gusting 2 5.6
2017-Jan-18 22:37 338 1 gusting 1 5.6
2017-Jan-18 22:22 5.6
2017-Jan-18 22:17 029 5.6
2017-Jan-18 22:06 112 1 gusting 4 5.6
2017-Jan-18 22:02 018 6 gusting 10 5.6
2017-Jan-18 21:56 5.6
2017-Jan-18 21:52 5.6
2017-Jan-18 21:46 046 0 gusting 5 5.6
2017-Jan-18 21:42 047 0 gusting 1 5.6
2017-Jan-18 21:31 007 5.6
2017-Jan-18 21:27 153 5.6
2017-Jan-18 21:21 292 0 gusting 0 5.6
2017-Jan-18 21:17 142 5.6
2017-Jan-18 21:12 022 1 gusting 1 5.6
2017-Jan-18 21:02 003 0 gusting 2 5.6
2017-Jan-18 20:57 5.6
2017-Jan-18 20:52 022 1 gusting 2 5.6
2017-Jan-18 20:47 012 1 gusting 2 5.6
2017-Jan-18 20:42 068 1 gusting 2 5.6
2017-Jan-18 20:22 045 1 gusting 2 5.6
2017-Jan-18 20:17 5.6
2017-Jan-18 20:12 003 6 gusting 7 5.6
2017-Jan-18 20:02 022 2 gusting 2 5.6
2017-Jan-18 19:52 5.6
2017-Jan-18 19:42 022 5.6
2017-Jan-18 19:37 5.6
2017-Jan-18 19:32 022 4 gusting 5 5.6
2017-Jan-18 19:27 024 0 gusting 4 5.6
2017-Jan-18 19:22 045 2 gusting 4 5.6
2017-Jan-18 19:07 022 1 gusting 1 5.6
2017-Jan-18 19:02 5.6
2017-Jan-18 18:37 045 2 gusting 4 5.6
2017-Jan-18 18:32 022 0 gusting 4 5.6
2017-Jan-18 18:27 5.6
2017-Jan-18 18:22 045 2 gusting 4 5.6
2017-Jan-18 18:17 009 1 gusting 4 5.6
2017-Jan-18 18:12 5.6
2017-Jan-18 18:07 022 0 gusting 1 5.6